Home   Weather   Brandon   Past weeks

Flag for Canada Past Weather in Brandon, Manitoba, Canada — Yesterday and Last 2 Weeks

Now
77 °F

Scattered clouds.


Feels Like: 78 °F
Forecast: 54 / 77 °F
Wind: 9 mph from Northwest

Location: Brandon

Current Time: Aug 16, 2017 at 2:55:03 pm

Latest Report: Aug 16, 2017 at 2:00 pm


Visibility: 15 mi

Pressure: 29.90 "Hg

Humidity: 39%

Dew Point: 50 °F

Location of BrandonLocation

Past Weather in Brandon — Graph

°F

Brandon Temperature Yesterday

Maximum temperature yesterday: 68 °F (at 11:52 am)
Minimum temperature yesterday: 55 °F (at 4:00 am)
Average temperature yesterday: 64 °F

High & Low Weather Summary for the Past Weeks

 TemperatureHumidityPressure
High81 °F (Aug 14, 2:00 pm)100% (Aug 2, 11:00 pm)30.29 "Hg (Aug 2, 11:00 pm)
Low46 °F (Aug 3, 4:00 am)36% (Aug 10, 2:00 pm)29.87 "Hg (Aug 14, 9:00 pm)
Average63 °F76%30.08 "Hg
* Reported Aug 1 1:00 pm — Aug 16 1:00 pm, Brandon. Weather by CustomWeather, © 2017

Note: Actual official high and low records may vary slightly from our data, if they occured in-between our weather recording intervals... More about our weather records

Advertising

Brandon Weather History for the Previous 24 Hours

Scroll right to see more
 ConditionsComfort  
Time TempWeatherWind HumidityBarometerVisibility
1:00 pm
Wed, Aug 16
73 °FScattered clouds.8 mph50%29.91 "Hg15 mi
12:00 pm72 °FScattered clouds.7 mph69%29.92 "Hg15 mi
11:00 am64 °FPartly sunny.3 mph88%29.93 "Hg10 mi
10:00 am63 °FFog.6 mph94%29.93 "Hg6 mi
9:35 am61 °FFog.7 mph94%29.93 "Hg6 mi
9:00 am61 °FFog.6 mph94%29.93 "Hg6 mi
8:38 am61 °FMore clouds than sun.5 mph94%29.92 "Hg8 mi
8:00 am59 °FBroken clouds.5 mph100%29.92 "Hg12 mi
7:00 am57 °FPartly sunny.3 mph94%29.92 "Hg10 mi
6:00 am59 °FPassing clouds.3 mph100%29.90 "Hg15 mi
5:00 am61 °FPassing clouds.3 mph94%29.91 "Hg15 mi
4:00 am61 °FPartly cloudy.5 mph94%29.91 "Hg15 mi
3:00 am61 °FMostly cloudy.5 mph100%29.91 "Hg15 mi
2:00 am61 °FPassing clouds.3 mph100%29.90 "Hg15 mi
1:00 am63 °FOvercast.3 mph94%29.90 "Hg15 mi
12:00 am63 °FPassing clouds.6 mph94%29.89 "Hg15 mi
11:00 pm
Tue, Aug 15
63 °FPassing clouds.5 mph94%29.90 "Hg15 mi
10:00 pm64 °FPassing clouds.7 mph88%29.90 "Hg15 mi
9:00 pm64 °FOvercast.5 mph88%29.89 "Hg15 mi
8:00 pm66 °FOvercast.6 mph83%29.88 "Hg15 mi
7:00 pm68 °FPartly sunny.9 mph83%29.88 "Hg15 mi
6:00 pm66 °FOvercast.5 mph94%29.89 "Hg15 mi
5:47 pm66 °FMore clouds than sun.6 mph94%29.89 "Hg15 mi
5:18 pm66 °FSprinkles. Mostly cloudy.7 mph88%29.90 "Hg15 mi
5:00 pm66 °FMostly cloudy.8 mph88%29.90 "Hg15 mi
4:00 pm68 °FMostly cloudy.8 mph83%29.90 "Hg15 mi
3:00 pm66 °FCloudy.7 mph88%29.90 "Hg15 mi
2:13 pm66 °FMostly cloudy.8 mph88%29.90 "Hg15 mi
2:00 pm66 °FSprinkles. Mostly cloudy.6 mph88%29.91 "Hg15 mi
Weather by CustomWeather, © 2017

See weather overviewHow to use our weather pages